Location: Asheville, NC
(35.6000°N, 82.5500°W)
Time: 11:43:31
(UTC-04:00)

Vanguard 1 - Pass Details

Date: 14 December 2017
Orbit: 650 x 3833 km, 34.3° (Epoch: 22 June)

Event Time Altitude Azimuth Distance (km) Brightness Sun altitude
Rises 10:39:43 0° 254° (WSW) 7,938 14.6 26.1°
Reaches altitude 10° 10:45:25 10° 254° (WSW) 6,768 14.3 26.6°
Maximum altitude 11:06:41 82° 171° (S) 2,667 12.9 28.3°
Drops below altitude 10° 11:18:31 10° 86° (E) 4,074 13.5 29.1°
Sets 11:21:02 0° 85° (E) 4,755 13.7 29.2°
